FDX375 RODN-KOAK

Flight info

Callsign FDX375
Flight time N/A
Altitude 31000
Route HIVAS DCT SHIBK Y57 YULIA Y89 AGIMO/N0492F330 Y89 GUPER Y81 MOE A590 KAGIS DCT ALGES DCT PUGAL/N0478F340 A590 PASRO/N0483F350 A590 POWAL R451 ADK DCT 42N130W DCT PAINT PIRAT3
Aircraft MD11/H-SDE1E2E3FGHIJ2J3J4J5M1RWXY/LB1D1

Departure

Time N/A
Airport Kadena Air Base (RODN)

Arrival

Time 2026-05-01 11:29
Airport San Francisco Bay Oakland International Airport (KOAK)
Time Latitude Longitude Altitude Speed Heading
2026-05-01 07:23 51.44823 -165.03888 32356 ft 552 kts 108°
2026-05-01 07:24 51.43315 -164.85669 32373 ft 552 kts 108°
2026-05-01 07:24 51.42326 -164.73486 32372 ft 555 kts 108°
2026-05-01 07:25 51.41350 -164.61267 32385 ft 556 kts 108°
2026-05-01 07:25 51.40240 -164.49107 32375 ft 550 kts 110°
2026-05-01 07:26 51.38967 -164.37096 32389 ft 552 kts 110°
2026-05-01 07:26 51.37721 -164.25015 32381 ft 551 kts 111°
2026-05-01 07:27 51.36525 -164.12927 32385 ft 552 kts 110°
2026-05-01 07:27 51.35336 -164.00827 32401 ft 556 kts 110°
2026-05-01 07:28 51.34156 -163.88670 32383 ft 556 kts 110°
2026-05-01 07:28 51.32983 -163.76479 32413 ft 558 kts 110°
2026-05-01 07:29 51.31813 -163.64212 32412 ft 560 kts 109°
2026-05-01 07:29 51.30660 -163.51984 32396 ft 559 kts 109°
2026-05-01 07:30 51.29531 -163.39735 32398 ft 560 kts 110°
2026-05-01 07:30 51.28411 -163.27545 32394 ft 559 kts 110°
2026-05-01 07:31 51.27096 -163.15370 32411 ft 558 kts 113°
2026-05-01 07:32 51.23607 -162.84949 32420 ft 559 kts 112°
2026-05-01 07:33 51.21592 -162.66591 32453 ft 565 kts 111°
2026-05-01 07:33 51.19591 -162.48183 32464 ft 566 kts 110°
2026-05-01 07:34 51.17607 -162.29582 32434 ft 568 kts 111°
2026-05-01 07:35 51.16308 -162.17209 32448 ft 570 kts 110°
2026-05-01 07:35 51.15017 -162.04864 32436 ft 566 kts 110°
2026-05-01 07:36 51.13720 -161.92575 32455 ft 566 kts 111°
2026-05-01 07:36 51.12171 -161.80321 32465 ft 565 kts 113°
2026-05-01 07:37 51.09829 -161.61925 32461 ft 569 kts 111°
2026-05-01 07:37 51.08319 -161.49626 32467 ft 571 kts 111°
2026-05-01 07:38 51.06824 -161.37324 32458 ft 572 kts 111°
2026-05-01 07:39 51.04601 -161.18857 32464 ft 570 kts 111°
2026-05-01 07:39 51.02396 -161.00252 32468 ft 574 kts 110°
2026-05-01 07:40 51.00949 -160.87913 32469 ft 571 kts 111°
2026-05-01 07:40 50.99504 -160.75577 32495 ft 572 kts 110°
2026-05-01 07:41 50.98074 -160.63197 32489 ft 573 kts 111°
2026-05-01 07:42 50.95522 -160.44812 32484 ft 570 kts 111°
2026-05-01 07:42 50.93812 -160.32561 32490 ft 571 kts 112°
2026-05-01 07:43 50.92169 -160.20288 32492 ft 573 kts 111°
2026-05-01 07:43 50.89706 -160.01859 32493 ft 576 kts 110°
2026-05-01 07:44 50.86449 -159.77122 32521 ft 577 kts 110°
2026-05-01 07:45 50.84844 -159.64764 32486 ft 574 kts 110°
2026-05-01 07:45 50.83263 -159.52473 32499 ft 572 kts 110°
2026-05-01 07:46 50.81679 -159.40120 32521 ft 575 kts 109°
2026-05-01 07:47 50.79083 -159.21838 32482 ft 569 kts 112°
2026-05-01 07:47 50.77209 -159.09720 32510 ft 571 kts 112°
2026-05-01 07:48 50.74519 -158.91365 32503 ft 572 kts 111°
2026-05-01 07:48 50.72739 -158.79215 32527 ft 573 kts 110°
2026-05-01 07:49 50.70088 -158.60846 32557 ft 573 kts 109°
2026-05-01 07:50 50.68343 -158.48637 32570 ft 574 kts 110°
2026-05-01 07:50 50.65754 -158.30327 32588 ft 575 kts 110°
2026-05-01 07:51 50.64022 -158.18071 32580 ft 575 kts 110°
2026-05-01 07:52 50.61351 -157.99764 32582 ft 572 kts 112°
2026-05-01 07:52 50.59343 -157.87695 32573 ft 571 kts 111°
2026-05-01 07:53 50.56422 -157.69632 32598 ft 573 kts 110°
2026-05-01 07:53 50.54513 -157.57547 32595 ft 572 kts 110°
2026-05-01 07:55 50.49765 -157.27321 32788 ft 573 kts 111°
2026-05-01 07:55 50.47858 -157.15262 33748 ft 573 kts 111°
2026-05-01 07:56 50.45086 -156.97092 34667 ft 571 kts 110°
2026-05-01 07:57 50.42339 -156.79237 34651 ft 565 kts 111°
2026-05-01 07:58 50.38184 -156.55512 34661 ft 568 kts 112°
2026-05-01 07:59 50.34104 -156.31702 34671 ft 568 kts 112°
2026-05-01 08:00 50.28090 -155.96063 34675 ft 567 kts 111°
2026-05-01 08:01 50.24162 -155.72360 34696 ft 568 kts 111°
2026-05-01 08:02 50.21218 -155.54542 34703 ft 566 kts 110°
2026-05-01 08:03 50.17953 -155.36961 34720 ft 565 kts 112°
2026-05-01 08:03 50.14664 -155.19360 34722 ft 565 kts 112°
2026-05-01 08:04 50.10396 -154.95981 34736 ft 564 kts 112°
2026-05-01 08:05 50.07217 -154.78413 34752 ft 565 kts 112°
2026-05-01 08:06 50.04063 -154.60838 34750 ft 565 kts 111°
2026-05-01 08:07 49.99896 -154.37334 34761 ft 566 kts 110°
2026-05-01 08:08 49.96625 -154.19905 34767 ft 563 kts 114°
2026-05-01 08:09 49.91961 -153.96699 34773 ft 565 kts 112°
2026-05-01 08:09 49.89701 -153.85060 34786 ft 565 kts 112°
2026-05-01 08:10 49.85188 -153.61894 34803 ft 565 kts 111°
2026-05-01 08:11 49.80727 -153.38664 34813 ft 567 kts 111°
2026-05-01 08:12 49.77394 -153.21176 34816 ft 566 kts 111°
2026-05-01 08:13 49.74075 -153.03722 34838 ft 567 kts 112°
2026-05-01 08:13 49.70386 -152.86481 34855 ft 565 kts 113°
2026-05-01 08:14 49.67936 -152.74957 34862 ft 566 kts 112°
2026-05-01 08:14 49.65537 -152.63429 34874 ft 568 kts 112°
2026-05-01 08:15 49.61957 -152.46143 34882 ft 567 kts 111°
2026-05-01 08:16 49.59570 -152.34590 34885 ft 567 kts 111°
2026-05-01 08:16 49.57210 -152.23048 34863 ft 567 kts 111°
2026-05-01 08:17 49.54854 -152.11517 34880 ft 568 kts 111°
2026-05-01 08:17 49.52511 -151.99927 34887 ft 568 kts 111°
2026-05-01 08:18 49.50164 -151.88333 34886 ft 568 kts 110°
2026-05-01 08:19 49.45139 -151.65512 34916 ft 568 kts 112°
2026-05-01 08:19 49.42571 -151.54114 34913 ft 568 kts 111°
2026-05-01 08:20 49.40031 -151.42615 34924 ft 569 kts 111°
2026-05-01 08:20 49.37513 -151.31165 34929 ft 569 kts 112°
2026-05-01 08:21 49.35009 -151.19763 34930 ft 568 kts 111°
2026-05-01 08:21 49.32500 -151.08290 34933 ft 569 kts 111°
2026-05-01 08:22 49.30019 -150.96858 34931 ft 568 kts 111°
2026-05-01 08:22 49.27531 -150.85378 34953 ft 568 kts 111°
2026-05-01 08:23 49.25075 -150.73915 34964 ft 569 kts 110°
2026-05-01 08:23 49.22612 -150.62532 34974 ft 569 kts 111°
2026-05-01 08:24 49.19947 -150.51210 34974 ft 568 kts 112°
2026-05-01 08:24 49.17219 -150.39879 34986 ft 569 kts 112°
2026-05-01 08:25 49.14569 -150.28587 34980 ft 568 kts 112°
2026-05-01 08:25 49.11931 -150.17267 34983 ft 568 kts 112°
2026-05-01 08:26 49.09287 -150.05957 34993 ft 567 kts 112°
2026-05-01 08:26 49.06671 -149.94650 35010 ft 568 kts 111°
2026-05-01 08:27 49.04049 -149.83321 35008 ft 569 kts 111°
2026-05-01 08:27 49.01451 -149.71997 35017 ft 570 kts 111°
2026-05-01 08:28 48.98861 -149.60675 35017 ft 569 kts 110°
2026-05-01 08:28 48.96270 -149.49307 35034 ft 569 kts 110°
2026-05-01 08:29 48.93644 -149.38058 35044 ft 569 kts 112°
2026-05-01 08:29 48.90799 -149.26868 35025 ft 570 kts 113°
2026-05-01 08:30 48.87968 -149.15640 35024 ft 571 kts 112°
2026-05-01 08:30 48.85187 -149.04372 35043 ft 572 kts 112°
2026-05-01 08:31 48.82403 -148.93083 35053 ft 572 kts 111°
2026-05-01 08:31 48.79643 -148.81828 35065 ft 573 kts 111°
2026-05-01 08:32 48.76880 -148.70531 35070 ft 573 kts 110°
2026-05-01 08:32 48.74148 -148.59299 35079 ft 573 kts 111°
2026-05-01 08:33 48.71417 -148.48025 35086 ft 573 kts 110°
2026-05-01 08:33 48.68687 -148.36693 35094 ft 573 kts 110°
2026-05-01 08:34 48.65962 -148.25409 35088 ft 572 kts 111°
2026-05-01 08:34 48.63067 -148.14232 35105 ft 574 kts 112°
2026-05-01 08:35 48.60096 -148.03099 35108 ft 574 kts 111°
2026-05-01 08:35 48.57186 -147.92018 35123 ft 573 kts 111°
2026-05-01 08:36 48.54291 -147.80861 35145 ft 573 kts 111°
2026-05-01 08:36 48.51390 -147.69655 35157 ft 573 kts 110°
2026-05-01 08:37 48.48525 -147.58574 35168 ft 572 kts 110°
2026-05-01 08:37 48.45661 -147.47391 35169 ft 572 kts 110°
2026-05-01 08:38 48.42804 -147.36272 35174 ft 572 kts 110°
2026-05-01 08:38 48.39972 -147.25142 35169 ft 572 kts 111°
2026-05-01 08:39 48.37146 -147.14033 35175 ft 572 kts 109°
2026-05-01 08:39 48.34261 -147.02918 35182 ft 572 kts 111°
2026-05-01 08:40 48.29650 -146.86502 35188 ft 572 kts 111°
2026-05-01 08:40 48.26650 -146.75540 35188 ft 571 kts 111°
2026-05-01 08:41 48.23645 -146.64490 35198 ft 571 kts 110°
2026-05-01 08:41 48.20650 -146.53580 35201 ft 571 kts 110°
2026-05-01 08:42 48.17677 -146.42572 35218 ft 571 kts 110°
2026-05-01 08:42 48.14699 -146.31596 35200 ft 571 kts 110°
2026-05-01 08:43 48.11762 -146.20651 35210 ft 569 kts 110°
2026-05-01 08:43 48.08819 -146.09711 35208 ft 570 kts 110°
2026-05-01 08:44 48.05889 -145.98746 35207 ft 569 kts 109°
2026-05-01 08:44 48.02906 -145.87822 35220 ft 569 kts 111°
2026-05-01 08:45 47.99753 -145.77094 35228 ft 569 kts 112°
2026-05-01 08:45 47.96601 -145.66295 35246 ft 568 kts 111°
2026-05-01 08:46 47.93513 -145.55475 35253 ft 567 kts 111°
2026-05-01 08:46 47.90434 -145.44771 35279 ft 565 kts 110°
2026-05-01 08:47 47.87363 -145.34000 35276 ft 564 kts 110°
2026-05-01 08:47 47.84322 -145.23294 35270 ft 566 kts 110°
2026-05-01 08:48 47.81283 -145.12589 35272 ft 566 kts 110°
2026-05-01 08:48 47.78262 -145.01851 35287 ft 564 kts 110°
2026-05-01 08:49 47.75240 -144.91157 35306 ft 564 kts 109°
2026-05-01 08:49 47.72257 -144.80461 35297 ft 562 kts 110°
2026-05-01 08:50 47.69119 -144.69870 35308 ft 563 kts 111°
2026-05-01 08:50 47.65868 -144.59293 35295 ft 561 kts 111°
2026-05-01 08:51 47.62693 -144.48843 35306 ft 559 kts 110°
2026-05-01 08:51 47.59549 -144.38351 35300 ft 559 kts 110°
2026-05-01 08:52 47.56417 -144.27901 35290 ft 560 kts 111°
2026-05-01 08:52 47.53274 -144.17392 35293 ft 560 kts 110°
2026-05-01 08:53 47.50137 -144.06841 35306 ft 560 kts 110°
2026-05-01 08:53 47.47023 -143.96356 35337 ft 558 kts 109°
2026-05-01 08:54 47.43935 -143.85881 35343 ft 559 kts 109°
2026-05-01 08:54 47.40866 -143.75476 35342 ft 557 kts 109°
2026-05-01 08:55 47.37782 -143.65025 35351 ft 557 kts 110°
2026-05-01 08:55 47.34523 -143.54712 35380 ft 556 kts 111°
2026-05-01 08:56 47.31231 -143.44440 35367 ft 555 kts 111°
2026-05-01 08:56 47.27993 -143.34168 35359 ft 554 kts 110°
2026-05-01 08:57 47.24793 -143.23941 35367 ft 554 kts 110°
2026-05-01 08:57 47.21577 -143.13699 35382 ft 553 kts 110°
2026-05-01 08:58 47.18388 -143.03451 35384 ft 551 kts 109°
2026-05-01 08:58 47.15210 -142.93245 35383 ft 552 kts 110°
2026-05-01 08:59 47.12024 -142.83000 35356 ft 552 kts 109°
2026-05-01 08:59 47.08870 -142.72760 35344 ft 552 kts 109°
2026-05-01 09:00 47.05713 -142.62570 35351 ft 551 kts 109°
2026-05-01 09:00 47.02568 -142.52399 35355 ft 551 kts 109°
2026-05-01 09:01 46.99225 -142.42340 35361 ft 552 kts 110°
2026-05-01 09:01 46.95864 -142.32297 35356 ft 552 kts 110°
2026-05-01 09:02 46.92564 -142.22220 35366 ft 553 kts 110°
2026-05-01 09:02 46.89256 -142.12128 35372 ft 553 kts 110°
2026-05-01 09:03 46.85926 -142.01953 35371 ft 554 kts 110°
2026-05-01 09:03 46.82635 -141.91841 35388 ft 556 kts 109°
2026-05-01 09:04 46.79357 -141.81746 35387 ft 554 kts 109°
2026-05-01 09:04 46.76076 -141.71625 35400 ft 554 kts 109°
2026-05-01 09:05 46.72796 -141.61479 35399 ft 555 kts 108°
2026-05-01 09:05 46.69541 -141.51326 35392 ft 554 kts 109°
2026-05-01 09:06 46.66222 -141.41237 35395 ft 557 kts 110°
2026-05-01 09:06 46.62741 -141.31220 35182 ft 556 kts 110°
2026-05-01 09:07 46.60992 -141.26189 35317 ft 556 kts 110°
2026-05-01 09:07 46.59287 -141.21243 35395 ft 557 kts 110°
2026-05-01 09:07 46.55840 -141.11160 35368 ft 556 kts 110°
2026-05-01 09:08 46.52414 -141.01131 35383 ft 555 kts 109°
2026-05-01 09:08 46.49015 -140.91156 35396 ft 553 kts 109°
2026-05-01 09:09 46.45628 -140.81163 35408 ft 555 kts 109°
2026-05-01 09:09 46.42260 -140.71233 35400 ft 554 kts 108°
2026-05-01 09:10 46.38876 -140.61191 35400 ft 552 kts 108°
2026-05-01 09:10 46.35538 -140.51309 35397 ft 549 kts 108°
2026-05-01 09:11 46.32214 -140.41362 35398 ft 550 kts 108°
2026-05-01 09:11 46.28801 -140.31502 35384 ft 552 kts 110°
2026-05-01 09:12 46.25257 -140.21712 35388 ft 551 kts 111°
2026-05-01 09:12 46.21803 -140.12102 35391 ft 552 kts 110°
2026-05-01 09:13 46.18308 -140.02301 35407 ft 551 kts 110°
2026-05-01 09:13 46.14819 -139.92473 35395 ft 552 kts 110°
2026-05-01 09:14 46.11341 -139.82683 35403 ft 550 kts 109°
2026-05-01 09:14 46.07902 -139.72935 35398 ft 547 kts 109°
2026-05-01 09:15 46.04470 -139.63216 35403 ft 549 kts 109°
2026-05-01 09:15 46.01021 -139.53422 35409 ft 549 kts 109°
2026-05-01 09:16 45.97615 -139.43710 35413 ft 546 kts 109°
2026-05-01 09:17 45.92512 -139.29176 35406 ft 546 kts 110°
2026-05-01 09:17 45.87129 -139.14754 35404 ft 549 kts 111°
2026-05-01 09:18 45.81759 -139.00352 35404 ft 547 kts 111°
2026-05-01 09:19 45.76441 -138.85960 35406 ft 546 kts 111°
2026-05-01 09:20 45.71167 -138.71664 35408 ft 542 kts 111°
2026-05-01 09:21 45.64204 -138.52692 35398 ft 540 kts 111°
2026-05-01 09:21 45.59027 -138.38490 35398 ft 537 kts 111°
2026-05-01 09:22 45.52123 -138.19771 35383 ft 536 kts 113°
2026-05-01 09:23 45.46714 -138.05940 35384 ft 534 kts 114°
2026-05-01 09:24 45.41403 -137.92125 35378 ft 531 kts 114°
2026-05-01 09:25 45.34351 -137.73789 35369 ft 529 kts 113°
2026-05-01 09:26 45.29095 -137.60042 35363 ft 528 kts 113°
2026-05-01 09:26 45.23893 -137.46381 35362 ft 527 kts 113°
2026-05-01 09:27 45.18709 -137.32716 35331 ft 525 kts 114°
2026-05-01 09:28 45.15265 -137.23644 35323 ft 527 kts 114°
2026-05-01 09:28 45.11742 -137.14639 35325 ft 526 kts 116°
2026-05-01 09:29 45.06315 -137.01230 35320 ft 524 kts 116°
2026-05-01 09:30 45.00936 -136.87766 35323 ft 524 kts 116°
2026-05-01 09:30 44.95602 -136.74385 35328 ft 523 kts 116°
2026-05-01 09:31 44.92083 -136.65523 35326 ft 522 kts 116°
2026-05-01 09:32 44.86801 -136.52205 35319 ft 519 kts 115°
2026-05-01 09:32 44.81556 -136.38927 35310 ft 518 kts 116°
2026-05-01 09:33 44.78078 -136.30090 35308 ft 517 kts 116°
2026-05-01 09:34 44.72866 -136.16905 35304 ft 516 kts 117°
2026-05-01 09:34 44.67420 -136.03865 35303 ft 516 kts 118°
2026-05-01 09:35 44.62034 -135.90909 35300 ft 515 kts 117°
2026-05-01 09:36 44.58442 -135.82225 35295 ft 514 kts 118°
2026-05-01 09:36 44.54869 -135.73575 35287 ft 514 kts 117°
2026-05-01 09:37 44.51310 -135.64935 35286 ft 513 kts 117°
2026-05-01 09:37 44.46002 -135.52023 35288 ft 513 kts 117°
2026-05-01 09:38 44.40693 -135.39075 35277 ft 512 kts 117°
2026-05-01 09:39 44.35412 -135.26140 35428 ft 511 kts 118°
2026-05-01 09:39 44.31905 -135.17569 35346 ft 508 kts 118°
2026-05-01 09:40 44.26465 -135.04909 35313 ft 509 kts 120°
2026-05-01 09:41 44.22831 -134.96516 35307 ft 509 kts 120°
2026-05-01 09:41 44.17422 -134.83896 35297 ft 508 kts 120°
2026-05-01 09:42 44.13818 -134.75479 35291 ft 508 kts 120°
2026-05-01 09:43 44.06638 -134.58646 35279 ft 507 kts 120°
2026-05-01 09:43 44.03067 -134.50262 35277 ft 506 kts 120°
2026-05-01 09:44 43.97734 -134.37689 35269 ft 506 kts 120°
2026-05-01 09:45 43.94181 -134.29308 35271 ft 506 kts 120°
2026-05-01 09:45 43.88862 -134.16756 35266 ft 504 kts 121°
2026-05-01 09:46 43.85180 -134.08495 35268 ft 504 kts 122°
2026-05-01 09:46 43.81515 -134.00316 35278 ft 504 kts 122°
2026-05-01 09:47 43.77851 -133.92087 35270 ft 504 kts 122°
2026-05-01 09:47 43.74200 -133.83855 35283 ft 503 kts 122°
2026-05-01 09:48 43.70563 -133.75639 35279 ft 503 kts 122°
2026-05-01 09:48 43.66924 -133.67407 35278 ft 503 kts 122°
2026-05-01 09:49 43.63305 -133.59198 35275 ft 502 kts 122°
2026-05-01 09:49 43.59688 -133.50983 35275 ft 503 kts 122°
2026-05-01 09:50 43.56080 -133.42772 35267 ft 502 kts 122°
2026-05-01 09:50 43.52475 -133.34567 35267 ft 501 kts 122°
2026-05-01 09:51 43.48897 -133.26390 35267 ft 501 kts 122°
2026-05-01 09:51 43.45298 -133.18208 35258 ft 501 kts 123°
2026-05-01 09:52 43.41557 -133.10097 35259 ft 501 kts 124°
2026-05-01 09:52 43.37838 -133.02090 35258 ft 502 kts 124°
2026-05-01 09:53 43.34109 -132.93964 35264 ft 501 kts 124°
2026-05-01 09:53 43.30425 -132.85918 35260 ft 500 kts 124°
2026-05-01 09:54 43.26742 -132.77876 35264 ft 499 kts 124°
2026-05-01 09:54 43.23075 -132.69855 35265 ft 499 kts 124°
2026-05-01 09:55 43.19399 -132.61789 35253 ft 500 kts 124°
2026-05-01 09:55 43.15729 -132.53735 35251 ft 500 kts 123°
2026-05-01 09:56 43.12083 -132.45709 35100 ft 499 kts 124°
2026-05-01 09:56 43.08423 -132.37650 35360 ft 501 kts 123°
2026-05-01 09:57 43.06576 -132.33569 35097 ft 500 kts 124°
2026-05-01 09:57 43.04763 -132.29565 35157 ft 498 kts 124°
2026-05-01 09:57 43.01128 -132.21585 35191 ft 499 kts 125°
2026-05-01 09:58 42.97353 -132.13666 35213 ft 499 kts 126°
2026-05-01 09:58 42.95448 -132.09711 35389 ft 499 kts 126°
2026-05-01 09:58 42.93559 -132.05754 35331 ft 497 kts 126°
2026-05-01 09:59 42.89819 -131.97827 35128 ft 496 kts 126°
2026-05-01 09:59 42.86098 -131.89990 35185 ft 498 kts 126°
2026-05-01 10:00 42.82355 -131.82068 35207 ft 499 kts 126°
2026-05-01 10:00 42.78609 -131.74135 35219 ft 498 kts 126°
2026-05-01 10:01 42.74880 -131.66217 35230 ft 498 kts 126°
2026-05-01 10:01 42.71167 -131.58325 35231 ft 497 kts 126°
2026-05-01 10:02 42.67467 -131.50456 35241 ft 497 kts 125°
2026-05-01 10:02 42.63762 -131.42541 35242 ft 497 kts 126°
2026-05-01 10:03 42.60075 -131.34694 35244 ft 496 kts 126°
2026-05-01 10:03 42.56396 -131.26814 35239 ft 495 kts 127°
2026-05-01 10:04 42.52587 -131.19066 35241 ft 495 kts 128°
2026-05-01 10:04 42.48753 -131.11331 35244 ft 495 kts 128°
2026-05-01 10:05 42.44974 -131.03587 35244 ft 495 kts 127°
2026-05-01 10:05 42.41179 -130.95839 35257 ft 495 kts 128°
2026-05-01 10:06 42.37397 -130.88081 35252 ft 495 kts 127°
2026-05-01 10:06 42.33617 -130.80330 35272 ft 495 kts 128°
2026-05-01 10:07 42.29858 -130.72589 35276 ft 494 kts 128°
2026-05-01 10:07 42.26095 -130.64859 35272 ft 494 kts 128°
2026-05-01 10:08 42.20456 -130.53209 35288 ft 495 kts 128°
2026-05-01 10:09 42.16709 -130.45497 35273 ft 495 kts 128°
2026-05-01 10:09 42.12976 -130.37741 35259 ft 494 kts 128°
2026-05-01 10:10 42.09208 -130.30069 35250 ft 492 kts 129°
2026-05-01 10:10 42.03509 -130.18631 35246 ft 493 kts 129°
2026-05-01 10:11 41.99720 -130.10994 35239 ft 492 kts 129°
2026-05-01 10:11 41.96622 -130.02713 35254 ft 504 kts 113°
2026-05-01 10:12 41.94812 -129.95309 35249 ft 500 kts 120°
2026-05-01 10:12 41.90249 -129.86668 35259 ft 479 kts 144°
2026-05-01 10:13 41.87685 -129.83907 35274 ft 473 kts 150°
2026-05-01 10:13 41.82435 -129.78626 35255 ft 476 kts 147°
2026-05-01 10:14 41.74921 -129.69824 35248 ft 480 kts 144°
2026-05-01 10:14 41.69963 -129.63872 35249 ft 479 kts 144°
2026-05-01 10:15 41.65023 -129.57965 35238 ft 478 kts 144°
2026-05-01 10:15 41.60098 -129.52072 35238 ft 478 kts 144°
2026-05-01 10:16 41.55163 -129.46135 35237 ft 479 kts 144°
2026-05-01 10:17 41.47776 -129.37262 35229 ft 478 kts 144°
2026-05-01 10:17 41.40353 -129.28348 35216 ft 478 kts 145°
2026-05-01 10:18 41.32980 -129.19458 35218 ft 478 kts 145°
2026-05-01 10:19 41.28050 -129.13620 35209 ft 477 kts 146°
2026-05-01 10:19 41.23049 -129.07831 35217 ft 478 kts 146°
2026-05-01 10:20 41.15565 -128.99112 35211 ft 478 kts 146°
2026-05-01 10:20 41.10604 -128.93330 35199 ft 478 kts 146°
2026-05-01 10:21 41.03126 -128.84592 35237 ft 479 kts 146°
2026-05-01 10:22 40.95639 -128.75850 35244 ft 481 kts 145°
2026-05-01 10:23 40.88148 -128.67087 35233 ft 481 kts 145°
2026-05-01 10:23 40.80626 -128.58264 35215 ft 482 kts 145°
2026-05-01 10:24 40.70639 -128.46564 35216 ft 482 kts 144°
2026-05-01 10:25 40.60513 -128.35034 35259 ft 480 kts 146°
2026-05-01 10:26 40.55473 -128.29294 35235 ft 481 kts 146°
2026-05-01 10:27 40.45341 -128.17793 35209 ft 483 kts 145°
2026-05-01 10:28 40.37743 -128.09143 35198 ft 483 kts 146°
2026-05-01 10:28 40.30173 -128.00507 35186 ft 483 kts 145°
2026-05-01 10:29 40.22582 -127.91866 35188 ft 484 kts 145°
2026-05-01 10:30 40.12470 -127.80330 35179 ft 486 kts 144°
2026-05-01 10:31 40.02290 -127.68802 35176 ft 486 kts 146°
2026-05-01 10:32 39.94527 -127.60256 35180 ft 486 kts 145°
2026-05-01 10:33 39.84259 -127.48880 35178 ft 487 kts 145°
2026-05-01 10:34 39.76566 -127.40336 35171 ft 487 kts 145°
2026-05-01 10:34 39.71400 -127.34607 35169 ft 488 kts 145°
2026-05-01 10:35 39.63689 -127.26047 35157 ft 487 kts 145°
2026-05-01 10:35 39.58558 -127.20321 35153 ft 487 kts 145°
2026-05-01 10:36 39.50861 -127.11787 35149 ft 487 kts 144°
2026-05-01 10:37 39.45735 -127.06051 35148 ft 488 kts 144°
2026-05-01 10:37 39.38003 -126.97604 35146 ft 488 kts 146°
2026-05-01 10:38 39.32765 -126.91980 35143 ft 489 kts 145°
2026-05-01 10:38 39.27581 -126.86362 35139 ft 489 kts 145°
2026-05-01 10:39 39.22349 -126.80719 35134 ft 489 kts 145°
2026-05-01 10:39 39.17167 -126.75100 35140 ft 490 kts 145°
2026-05-01 10:40 39.11951 -126.69468 35138 ft 491 kts 145°
2026-05-01 10:40 39.06720 -126.63786 35130 ft 491 kts 144°
2026-05-01 10:41 39.01525 -126.58170 35129 ft 491 kts 144°
2026-05-01 10:42 38.93694 -126.49657 35130 ft 493 kts 144°
2026-05-01 10:42 38.88462 -126.44009 35132 ft 493 kts 144°
2026-05-01 10:43 38.83254 -126.38324 35125 ft 493 kts 144°
2026-05-01 10:43 38.78025 -126.32685 35115 ft 493 kts 145°
2026-05-01 10:44 38.72745 -126.27135 35115 ft 492 kts 146°
2026-05-01 10:44 38.67457 -126.21571 35109 ft 492 kts 145°
2026-05-01 10:45 38.62206 -126.16022 35111 ft 492 kts 145°
2026-05-01 10:45 38.56929 -126.10460 35111 ft 493 kts 145°
2026-05-01 10:46 38.51660 -126.04884 35103 ft 493 kts 145°
2026-05-01 10:46 38.46367 -125.99300 35095 ft 494 kts 144°
2026-05-01 10:47 38.41096 -125.93714 35102 ft 495 kts 145°
2026-05-01 10:47 38.35799 -125.88124 35100 ft 495 kts 144°
2026-05-01 10:48 38.30525 -125.82525 35096 ft 495 kts 144°
2026-05-01 10:48 38.25216 -125.76918 35095 ft 496 kts 144°
2026-05-01 10:49 38.19952 -125.71324 35091 ft 496 kts 144°
2026-05-01 10:49 38.14636 -125.65708 35092 ft 496 kts 144°
2026-05-01 10:50 38.09316 -125.60184 35085 ft 496 kts 145°
2026-05-01 10:50 38.04005 -125.54638 35082 ft 497 kts 144°
2026-05-01 10:51 37.99296 -125.48193 35098 ft 505 kts 126°
2026-05-01 10:51 37.95922 -125.40353 35099 ft 510 kts 118°
2026-05-01 10:52 37.92798 -125.32309 35081 ft 511 kts 120°
2026-05-01 10:52 37.89539 -125.24336 35074 ft 511 kts 120°
2026-05-01 10:53 37.86234 -125.16397 35074 ft 510 kts 120°
2026-05-01 10:53 37.82947 -125.08459 35072 ft 511 kts 120°
2026-05-01 10:54 37.79680 -125.00512 35073 ft 511 kts 120°
2026-05-01 10:54 37.76411 -124.92540 35072 ft 511 kts 120°
2026-05-01 10:55 37.73176 -124.84629 35073 ft 511 kts 119°
2026-05-01 10:55 37.69908 -124.76621 35075 ft 512 kts 119°
2026-05-01 10:56 37.66676 -124.68695 35073 ft 512 kts 119°
2026-05-01 10:56 37.63431 -124.60713 35069 ft 511 kts 119°
2026-05-01 10:57 37.60205 -124.52783 35429 ft 510 kts 119°
2026-05-01 10:57 37.58580 -124.48781 35746 ft 511 kts 119°
2026-05-01 10:57 37.56930 -124.44830 36087 ft 511 kts 120°
2026-05-01 10:57 37.55269 -124.40936 36422 ft 510 kts 120°
2026-05-01 10:58 37.53574 -124.36971 36771 ft 509 kts 120°
2026-05-01 10:58 37.51929 -124.33089 36984 ft 510 kts 120°
2026-05-01 10:58 37.50271 -124.29123 36987 ft 510 kts 120°
2026-05-01 10:59 37.46965 -124.21258 37020 ft 508 kts 120°
2026-05-01 10:59 37.43659 -124.13410 37035 ft 508 kts 120°
2026-05-01 11:00 37.40394 -124.05602 37021 ft 506 kts 120°
2026-05-01 11:00 37.38750 -124.01704 36504 ft 503 kts 120°
2026-05-01 11:00 37.37136 -123.97855 36029 ft 502 kts 120°
2026-05-01 11:00 37.35516 -123.93953 35564 ft 500 kts 119°
2026-05-01 11:01 37.33916 -123.90114 35088 ft 498 kts 120°
2026-05-01 11:01 37.32310 -123.86284 34600 ft 493 kts 119°
2026-05-01 11:01 37.30791 -123.82474 34114 ft 490 kts 114°
2026-05-01 11:01 37.29670 -123.78486 33702 ft 487 kts 104°
2026-05-01 11:02 37.28964 -123.74361 33281 ft 484 kts 99°
2026-05-01 11:02 37.28405 -123.70251 32836 ft 480 kts 99°
2026-05-01 11:02 37.27828 -123.66106 32390 ft 476 kts 100°
2026-05-01 11:02 37.27213 -123.62073 31957 ft 472 kts 101°
2026-05-01 11:03 37.26572 -123.58079 31521 ft 468 kts 101°
2026-05-01 11:03 37.25924 -123.54132 31086 ft 465 kts 101°
2026-05-01 11:03 37.25269 -123.50163 30654 ft 461 kts 101°
2026-05-01 11:03 37.24625 -123.46231 30217 ft 458 kts 101°
2026-05-01 11:04 37.23996 -123.42355 29786 ft 455 kts 100°
2026-05-01 11:04 37.23383 -123.38511 29361 ft 451 kts 100°
2026-05-01 11:04 37.22770 -123.34642 28937 ft 448 kts 101°
2026-05-01 11:04 37.22169 -123.30883 28503 ft 445 kts 101°
2026-05-01 11:05 37.21559 -123.27078 28085 ft 441 kts 101°
2026-05-01 11:05 37.20970 -123.23370 27669 ft 437 kts 101°
2026-05-01 11:05 37.20383 -123.19619 27244 ft 434 kts 100°
2026-05-01 11:05 37.19932 -123.15906 26804 ft 429 kts 93°
2026-05-01 11:06 37.19941 -123.12206 26407 ft 423 kts 83°
2026-05-01 11:06 37.20392 -123.08630 25998 ft 418 kts 74°
2026-05-01 11:06 37.21188 -123.05127 25602 ft 413 kts 70°
2026-05-01 11:07 37.22933 -122.98354 24779 ft 407 kts 70°
2026-05-01 11:07 37.23755 -122.94995 24391 ft 404 kts 71°
2026-05-01 11:07 37.24547 -122.91657 23996 ft 401 kts 71°
2026-05-01 11:07 37.25327 -122.88326 23619 ft 398 kts 71°
2026-05-01 11:08 37.26101 -122.85014 23229 ft 395 kts 71°
2026-05-01 11:08 37.26883 -122.81719 22854 ft 391 kts 71°
2026-05-01 11:08 37.28379 -122.75237 22017 ft 389 kts 72°
2026-05-01 11:09 37.29127 -122.71985 21587 ft 387 kts 72°
2026-05-01 11:09 37.29874 -122.68741 21152 ft 384 kts 71°
2026-05-01 11:09 37.30620 -122.65534 20720 ft 382 kts 71°
2026-05-01 11:10 37.32080 -122.59209 19880 ft 377 kts 71°
2026-05-01 11:10 37.32795 -122.56078 19452 ft 375 kts 71°
2026-05-01 11:10 37.33514 -122.52944 19021 ft 373 kts 71°
2026-05-01 11:10 37.34232 -122.49818 18595 ft 371 kts 71°
2026-05-01 11:11 37.34945 -122.46722 18152 ft 369 kts 71°
2026-05-01 11:11 37.35652 -122.43665 17734 ft 367 kts 71°
2026-05-01 11:11 37.36360 -122.40596 17321 ft 365 kts 71°
2026-05-01 11:11 37.37069 -122.37532 16904 ft 363 kts 71°
2026-05-01 11:12 37.37764 -122.34532 16498 ft 361 kts 72°
2026-05-01 11:12 37.38467 -122.31499 16081 ft 359 kts 72°
2026-05-01 11:12 37.38928 -122.29507 15803 ft 358 kts 72°
2026-05-01 11:12 37.39626 -122.26502 15386 ft 356 kts 72°
2026-05-01 11:13 37.40317 -122.23515 14968 ft 355 kts 72°
2026-05-01 11:13 37.40995 -122.20572 14555 ft 353 kts 72°
2026-05-01 11:13 37.41684 -122.17591 14132 ft 352 kts 72°
2026-05-01 11:13 37.42363 -122.14649 13719 ft 351 kts 72°
2026-05-01 11:14 37.43038 -122.11739 13302 ft 349 kts 72°
2026-05-01 11:14 37.43723 -122.08816 12884 ft 348 kts 72°
2026-05-01 11:14 37.44408 -122.05913 12468 ft 347 kts 72°
2026-05-01 11:14 37.45099 -122.03020 11973 ft 341 kts 72°
2026-05-01 11:15 37.45770 -122.00236 11583 ft 329 kts 71°
2026-05-01 11:15 37.46421 -121.97538 11189 ft 318 kts 72°
2026-05-01 11:15 37.47062 -121.94923 10785 ft 309 kts 72°
2026-05-01 11:15 37.47687 -121.92413 10382 ft 301 kts 71°
2026-05-01 11:16 37.48313 -121.89936 9975 ft 293 kts 71°
2026-05-01 11:16 37.48933 -121.87511 9565 ft 286 kts 71°
2026-05-01 11:16 37.49541 -121.85159 9164 ft 281 kts 71°
2026-05-01 11:16 37.50141 -121.82844 8785 ft 283 kts 71°
2026-05-01 11:17 37.50753 -121.80493 8361 ft 284 kts 71°
2026-05-01 11:17 37.51349 -121.78123 8011 ft 282 kts 78°
2026-05-01 11:17 37.51339 -121.75713 7749 ft 277 kts 104°
2026-05-01 11:17 37.50508 -121.73547 7439 ft 275 kts 130°
2026-05-01 11:18 37.49028 -121.72128 7160 ft 273 kts 157°
2026-05-01 11:18 37.47172 -121.71720 6865 ft 269 kts 185°
2026-05-01 11:18 37.45440 -121.72427 6581 ft 264 kts 214°
2026-05-01 11:18 37.44197 -121.74062 6282 ft 256 kts 244°
2026-05-01 11:19 37.43771 -121.76169 6044 ft 245 kts 274°
2026-05-01 11:19 37.44046 -121.78212 5785 ft 237 kts 289°
2026-05-01 11:19 37.44588 -121.80159 5507 ft 232 kts 290°
2026-05-01 11:19 37.45126 -121.82061 5250 ft 228 kts 290°
2026-05-01 11:20 37.45645 -121.83884 5003 ft 219 kts 291°
2026-05-01 11:20 37.46155 -121.85666 4651 ft 213 kts 291°
2026-05-01 11:20 37.46650 -121.87395 4328 ft 206 kts 291°
2026-05-01 11:20 37.47293 -121.88944 3991 ft 197 kts 317°
2026-05-01 11:21 37.48400 -121.89892 3853 ft 192 kts 335°
2026-05-01 11:21 37.49609 -121.90586 3675 ft 195 kts 334°
2026-05-01 11:21 37.50778 -121.91502 3597 ft 200 kts 322°
2026-05-01 11:21 37.51795 -121.92676 3428 ft 198 kts 314°
2026-05-01 11:22 37.52681 -121.93973 3268 ft 196 kts 309°
2026-05-01 11:22 37.53514 -121.95345 3112 ft 195 kts 307°
2026-05-01 11:22 37.54314 -121.96709 2975 ft 195 kts 307°
2026-05-01 11:22 37.55125 -121.98080 2817 ft 195 kts 308°
2026-05-01 11:23 37.55948 -121.99438 2669 ft 193 kts 308°
2026-05-01 11:23 37.56767 -122.00771 2698 ft 194 kts 308°
2026-05-01 11:23 37.57599 -122.02110 2688 ft 190 kts 309°
2026-05-01 11:23 37.58383 -122.03378 2689 ft 178 kts 308°
2026-05-01 11:24 37.59131 -122.04620 2656 ft 176 kts 308°
2026-05-01 11:24 37.59871 -122.05849 2710 ft 173 kts 307°
2026-05-01 11:24 37.61330 -122.08299 2681 ft 177 kts 311°
2026-05-01 11:25 37.62142 -122.09458 2481 ft 175 kts 311°
2026-05-01 11:25 37.63747 -122.11777 1967 ft 178 kts 314°
2026-05-01 11:25 37.64610 -122.12884 1695 ft 172 kts 311°
2026-05-01 11:26 37.65293 -122.14056 1455 ft 165 kts 299°
2026-05-01 11:26 37.66524 -122.16467 994 ft 162 kts 310°
2026-05-01 11:26 37.67332 -122.17450 811 ft 162 kts 319°
2026-05-01 11:27 37.68170 -122.18385 610 ft 162 kts 311°
2026-05-01 11:27 37.68856 -122.19514 385 ft 162 kts 304°
2026-05-01 11:27 37.69564 -122.20610 221 ft 162 kts 313°
2026-05-01 11:27 37.70326 -122.21667 38 ft 160 kts 307°
2026-05-01 11:28 37.70996 -122.22704 16 ft 132 kts 313°
2026-05-01 11:28 37.71431 -122.23351 16 ft 68 kts 311°
2026-05-01 11:28 37.71728 -122.23800 16 ft 59 kts 309°
2026-05-01 11:29 37.71981 -122.23999 16 ft 16 kts 47°
2026-05-01 11:29 37.71983 -122.23895 16 ft 12 kts 138°
2026-05-01 11:29 37.71863 -122.23701 16 ft 16 kts 121°
2026-05-01 11:30 37.71800 -122.23570 16 ft 18 kts 121°
2026-05-01 11:30 37.71727 -122.23422 16 ft 21 kts 124°
2026-05-01 11:30 37.71628 -122.23270 16 ft 23 kts 131°
2026-05-01 11:30 37.71516 -122.23105 16 ft 25 kts 129°
2026-05-01 11:31 37.71397 -122.22922 16 ft 28 kts 130°
2026-05-01 11:31 37.71296 -122.22773 16 ft 20 kts 130°
2026-05-01 11:31 37.71200 -122.22627 16 ft 22 kts 130°
2026-05-01 11:31 37.71112 -122.22491 16 ft 16 kts 115°
2026-05-01 11:32 37.71162 -122.22374 16 ft 17 kts 38°
2026-05-01 11:32 37.71255 -122.22279 16 ft 15 kts 39°
2026-05-01 11:32 37.71340 -122.22179 16 ft 17 kts 47°
2026-05-01 11:32 37.71416 -122.22070 16 ft 13 kts 49°
2026-05-01 11:33 37.71466 -122.22000 16 ft 8 kts 49°
2026-05-01 11:33 37.71523 -122.21989 16 ft 10 kts 324°
2026-05-01 11:33 37.71574 -122.22037 16 ft 8 kts 341°
2026-05-01 11:33 37.71639 -122.22022 16 ft 10 kts 41°
2026-05-01 11:34 37.71666 -122.21975 16 ft 6 kts 95°
2026-05-01 11:34 37.71643 -122.21929 16 ft 6 kts 132°
2026-05-01 11:34 37.71633 -122.21915 16 ft 0 kts 133°